Time,TemperatureF,DewpointF,PressureIn,WindDirection,WindDirectionDegrees,WindSpeedMPH,WindSpeedGustMPH,Humidity,HourlyPrecipIn,Conditions,Clouds,dailyrainin,SoftwareType,DateUTC
2013-06-29 00:01:00,65.5,65.5,29.12,WSW,247,0.0,0.0,100,0.00,,,0.00,Rainwise IP-100,2013-06-29 04:01:00,
2013-06-29 00:06:00,65.5,65.5,29.12,WSW,247,0.0,0.0,100,0.00,,,0.00,Rainwise IP-100,2013-06-29 04:06:00,
2013-06-29 00:11:00,65.5,65.5,29.12,WSW,247,0.0,0.0,100,0.00,,,0.00,Rainwise IP-100,2013-06-29 04:11:00,
2013-06-29 00:16:00,65.4,65.5,29.11,WSW,247,0.0,0.0,100,0.00,,,0.00,Rainwise IP-100,2013-06-29 04:16:00,
2013-06-29 00:21:00,65.3,65.5,29.11,WSW,247,0.0,0.0,100,0.00,,,0.00,Rainwise IP-100,2013-06-29 04:21:00,
2013-06-29 00:26:00,65.3,65.5,29.11,WSW,247,0.0,0.0,100,0.00,,,0.00,Rainwise IP-100,2013-06-29 04:26:00,
2013-06-29 00:31:00,65.3,65.5,29.11,WSW,247,0.0,0.0,100,0.00,,,0.00,Rainwise IP-100,2013-06-29 04:31:00,
2013-06-29 00:36:00,65.3,65.5,29.11,WSW,247,0.0,0.0,100,0.00,,,0.00,Rainwise IP-100,2013-06-29 04:36:00,
2013-06-29 00:41:00,65.3,65.5,29.10,WSW,247,0.0,0.0,100,0.00,,,0.00,Rainwise IP-100,2013-06-29 04:41:00,
2013-06-29 00:46:00,65.3,65.5,29.11,WSW,247,0.0,0.0,100,0.00,,,0.00,Rainwise IP-100,2013-06-29 04:46:00,
2013-06-29 00:51:00,65.3,65.5,29.10,WSW,247,0.0,1.2,100,0.00,,,0.00,Rainwise IP-100,2013-06-29 04:51:00,
2013-06-29 00:57:00,65.4,65.5,29.10,WSW,247,0.0,1.2,100,0.00,,,0.00,Rainwise IP-100,2013-06-29 04:57:00,
2013-06-29 01:02:00,65.5,65.5,29.10,WSW,247,0.0,0.0,100,0.00,,,0.00,Rainwise IP-100,2013-06-29 05:02:00,
2013-06-29 01:07:00,65.4,65.5,29.10,WSW,247,0.0,0.0,100,0.00,,,0.00,Rainwise IP-100,2013-06-29 05:07:00,
2013-06-29 01:12:00,65.3,65.5,29.10,WSW,247,0.0,1.2,100,0.00,,,0.00,Rainwise IP-100,2013-06-29 05:12:00,
2013-06-29 01:17:00,65.3,65.5,29.10,ENE,67,2.6,2.6,100,0.00,,,0.00,Rainwise IP-100,2013-06-29 05:17:00,
2013-06-29 01:22:00,65.3,65.5,29.09,NE,45,2.1,3.0,100,0.00,,,0.00,Rainwise IP-100,2013-06-29 05:22:00,
2013-06-29 01:27:00,65.3,65.5,29.10,NE,45,0.0,2.1,100,0.00,,,0.00,Rainwise IP-100,2013-06-29 05:27:00,
2013-06-29 01:32:00,65.3,65.5,29.09,WNW,292,2.8,3.3,100,0.00,,,0.00,Rainwise IP-100,2013-06-29 05:32:00,
2013-06-29 01:37:00,65.3,65.5,29.10,WSW,247,1.6,2.8,100,0.06,,,0.01,Rainwise IP-100,2013-06-29 05:37:00,
2013-06-29 01:42:00,65.3,65.5,29.10,NNW,337,0.0,3.3,100,0.06,,,0.01,Rainwise IP-100,2013-06-29 05:42:00,
2013-06-29 01:47:00,65.4,65.5,29.09,NNE,22,1.6,2.3,100,0.00,,,0.01,Rainwise IP-100,2013-06-29 05:47:00,
2013-06-29 01:52:00,65.4,65.5,29.10,NNW,337,2.6,3.0,100,0.00,,,0.01,Rainwise IP-100,2013-06-29 05:52:00,
2013-06-29 01:57:00,65.4,65.5,29.10,SSE,157,4.0,5.4,100,0.00,,,0.01,Rainwise IP-100,2013-06-29 05:57:00,
2013-06-29 02:02:00,65.5,65.5,29.09,ESE,112,1.6,5.4,100,0.00,,,0.01,Rainwise IP-100,2013-06-29 06:02:00,
2013-06-29 02:07:00,65.5,65.5,29.09,WNW,292,2.1,3.0,100,0.18,,,0.04,Rainwise IP-100,2013-06-29 06:07:00,
2013-06-29 02:13:00,65.4,65.5,29.09,SSE,157,3.3,3.3,100,0.42,,,0.09,Rainwise IP-100,2013-06-29 06:13:00,
2013-06-29 02:18:00,65.5,65.5,29.10,WSW,247,4.4,4.4,100,0.42,,,0.11,Rainwise IP-100,2013-06-29 06:18:00,
2013-06-29 02:23:00,65.5,65.5,29.09,ESE,112,1.2,4.2,100,0.12,,,0.12,Rainwise IP-100,2013-06-29 06:23:00,
2013-06-29 02:28:00,65.5,65.5,29.09,ESE,112,0.0,1.6,100,0.06,,,0.12,Rainwise IP-100,2013-06-29 06:28:00,
2013-06-29 02:33:00,65.5,65.5,29.09,ESE,112,1.2,1.2,100,0.12,,,0.14,Rainwise IP-100,2013-06-29 06:33:00,
2013-06-29 02:38:00,65.4,65.5,29.09,ESE,112,0.0,1.4,100,0.12,,,0.14,Rainwise IP-100,2013-06-29 06:38:00,
2013-06-29 02:43:00,65.4,65.5,29.10,ESE,112,0.0,0.0,100,0.00,,,0.14,Rainwise IP-100,2013-06-29 06:43:00,
2013-06-29 02:48:00,65.4,65.5,29.09,ESE,112,0.0,0.0,100,0.00,,,0.14,Rainwise IP-100,2013-06-29 06:48:00,
2013-06-29 02:53:00,65.4,65.5,29.09,ESE,112,0.0,0.0,100,0.00,,,0.14,Rainwise IP-100,2013-06-29 06:53:00,
2013-06-29 02:58:00,65.4,65.5,29.09,ESE,112,0.0,0.0,100,0.00,,,0.14,Rainwise IP-100,2013-06-29 06:58:00,
2013-06-29 03:03:00,65.4,65.5,29.09,ESE,112,0.0,0.0,100,0.00,,,0.14,Rainwise IP-100,2013-06-29 07:03:00,
2013-06-29 03:08:00,65.4,65.5,29.09,ESE,112,0.0,0.0,100,0.00,,,0.14,Rainwise IP-100,2013-06-29 07:08:00,
2013-06-29 03:13:00,65.5,65.5,29.09,ESE,112,0.0,0.0,100,0.00,,,0.14,Rainwise IP-100,2013-06-29 07:13:00,
2013-06-29 03:18:00,65.6,65.5,29.09,ESE,112,0.0,0.0,100,0.00,,,0.14,Rainwise IP-100,2013-06-29 07:18:00,
2013-06-29 03:23:00,65.6,65.5,29.10,NW,315,1.4,0.0,100,0.00,,,0.14,Rainwise IP-100,2013-06-29 07:23:00,
2013-06-29 03:29:00,65.6,65.5,29.09,NNW,337,0.0,1.9,100,0.00,,,0.14,Rainwise IP-100,2013-06-29 07:29:00,
2013-06-29 03:34:00,65.6,65.5,29.09,NNW,337,0.0,0.0,100,0.00,,,0.14,Rainwise IP-100,2013-06-29 07:34:00,
2013-06-29 03:39:00,65.6,65.5,29.09,NNW,337,0.0,2.3,100,0.00,,,0.14,Rainwise IP-100,2013-06-29 07:39:00,
2013-06-29 03:44:00,65.6,65.5,29.09,NNW,337,0.0,0.0,100,0.00,,,0.14,Rainwise IP-100,2013-06-29 07:44:00,
2013-06-29 03:49:00,65.6,65.5,29.09,NNW,337,0.0,0.0,100,0.00,,,0.14,Rainwise IP-100,2013-06-29 07:49:00,
2013-06-29 03:54:00,65.6,65.5,29.09,NNW,337,0.0,0.0,100,0.00,,,0.14,Rainwise IP-100,2013-06-29 07:54:00,
2013-06-29 03:59:00,65.6,65.5,29.09,NNW,337,0.0,0.0,100,0.00,,,0.14,Rainwise IP-100,2013-06-29 07:59:00,
2013-06-29 04:04:00,65.6,65.5,29.10,NNW,337,0.0,0.0,100,0.00,,,0.14,Rainwise IP-100,2013-06-29 08:04:00,
2013-06-29 04:09:00,65.6,65.5,29.10,NNW,337,0.0,0.0,100,0.00,,,0.14,Rainwise IP-100,2013-06-29 08:09:00,
2013-06-29 04:14:00,65.6,65.5,29.10,North,360,2.1,2.3,100,0.00,,,0.14,Rainwise IP-100,2013-06-29 08:14:00,
2013-06-29 04:19:00,65.6,65.5,29.10,SE,135,0.0,2.3,100,0.00,,,0.14,Rainwise IP-100,2013-06-29 08:19:00,
2013-06-29 04:24:00,65.6,65.5,29.09,NE,45,3.0,3.5,100,0.00,,,0.14,Rainwise IP-100,2013-06-29 08:24:00,
2013-06-29 04:29:00,65.6,65.5,29.10,NNE,22,1.6,3.3,100,0.00,,,0.14,Rainwise IP-100,2013-06-29 08:29:00,
2013-06-29 04:34:00,65.6,65.5,29.10,NNE,22,0.0,1.9,100,0.00,,,0.14,Rainwise IP-100,2013-06-29 08:34:00,
2013-06-29 04:39:00,65.5,65.5,29.10,NNE,22,1.4,2.1,100,0.00,,,0.14,Rainwise IP-100,2013-06-29 08:39:00,
2013-06-29 04:45:00,65.5,65.5,29.10,NNE,22,0.0,3.0,100,0.00,,,0.14,Rainwise IP-100,2013-06-29 08:45:00,
2013-06-29 04:50:00,65.4,65.5,29.11,NNE,22,1.9,1.9,100,0.00,,,0.14,Rainwise IP-100,2013-06-29 08:50:00,
2013-06-29 04:55:00,65.4,65.5,29.11,NNE,22,0.0,2.1,100,0.00,,,0.14,Rainwise IP-100,2013-06-29 08:55:00,
2013-06-29 05:00:00,65.5,65.5,29.11,NNE,22,0.0,0.0,100,0.00,,,0.14,Rainwise IP-100,2013-06-29 09:00:00,
2013-06-29 05:05:00,65.5,65.5,29.11,NNE,22,0.0,0.0,100,0.00,,,0.14,Rainwise IP-100,2013-06-29 09:05:00,
2013-06-29 05:10:00,65.5,65.5,29.11,NNE,22,1.2,1.9,100,0.00,,,0.14,Rainwise IP-100,2013-06-29 09:10:00,
2013-06-29 05:15:00,65.6,65.5,29.11,NNE,22,0.0,1.9,100,0.00,,,0.14,Rainwise IP-100,2013-06-29 09:15:00,
2013-06-29 05:20:00,65.6,65.5,29.11,NNE,22,0.0,2.3,100,0.00,,,0.14,Rainwise IP-100,2013-06-29 09:20:00,
2013-06-29 05:25:00,65.6,65.5,29.11,NNW,337,1.4,2.8,100,0.00,,,0.14,Rainwise IP-100,2013-06-29 09:25:00,
2013-06-29 05:30:00,65.5,65.5,29.12,NNW,337,0.0,1.9,100,0.00,,,0.14,Rainwise IP-100,2013-06-29 09:30:00,
2013-06-29 05:35:00,65.5,65.5,29.12,NNW,337,0.0,0.0,100,0.00,,,0.14,Rainwise IP-100,2013-06-29 09:35:00,
2013-06-29 05:40:00,65.6,65.5,29.13,NNW,337,0.0,0.0,100,0.00,,,0.14,Rainwise IP-100,2013-06-29 09:40:00,
2013-06-29 05:45:00,65.6,65.5,29.13,NNW,337,0.0,0.0,100,0.00,,,0.14,Rainwise IP-100,2013-06-29 09:45:00,
2013-06-29 05:50:00,65.6,65.5,29.13,NNW,337,0.0,0.0,100,0.00,,,0.14,Rainwise IP-100,2013-06-29 09:50:00,
2013-06-29 05:55:00,65.7,65.5,29.13,NNW,337,0.0,0.0,100,0.00,,,0.14,Rainwise IP-100,2013-06-29 09:55:00,
2013-06-29 06:01:00,65.8,66.0,29.14,NNW,337,1.2,1.6,100,0.00,,,0.14,Rainwise IP-100,2013-06-29 10:01:00,
2013-06-29 06:06:00,65.8,66.0,29.13,NNW,337,0.0,1.6,100,0.00,,,0.14,Rainwise IP-100,2013-06-29 10:06:00,
2013-06-29 06:11:00,65.8,66.0,29.14,NNW,337,0.0,1.2,100,0.00,,,0.14,Rainwise IP-100,2013-06-29 10:11:00,
2013-06-29 06:16:00,65.8,66.0,29.13,NNW,337,0.0,0.0,100,0.00,,,0.14,Rainwise IP-100,2013-06-29 10:16:00,
2013-06-29 06:21:00,65.8,66.0,29.13,NNW,337,0.0,0.0,100,0.00,,,0.14,Rainwise IP-100,2013-06-29 10:21:00,
2013-06-29 06:26:00,65.8,66.0,29.13,NNW,337,0.0,1.2,100,0.00,,,0.14,Rainwise IP-100,2013-06-29 10:26:00,
2013-06-29 06:31:00,65.9,66.0,29.13,NNW,337,0.0,0.0,100,0.00,,,0.14,Rainwise IP-100,2013-06-29 10:31:00,
2013-06-29 06:36:00,65.9,66.0,29.13,NNW,337,0.0,0.0,100,0.00,,,0.14,Rainwise IP-100,2013-06-29 10:36:00,
2013-06-29 06:41:00,66.0,66.0,29.14,NNW,337,0.0,0.0,100,0.00,,,0.14,Rainwise IP-100,2013-06-29 10:41:00,
2013-06-29 06:46:00,66.0,66.0,29.14,NNW,337,0.0,0.0,100,0.00,,,0.14,Rainwise IP-100,2013-06-29 10:46:00,
2013-06-29 06:51:00,66.1,66.0,29.14,NNW,337,0.0,0.0,100,0.00,,,0.14,Rainwise IP-100,2013-06-29 10:51:00,
2013-06-29 06:56:00,66.2,66.3,29.14,NNW,337,0.0,0.0,100,0.00,,,0.14,Rainwise IP-100,2013-06-29 10:56:00,
2013-06-29 07:01:00,66.2,66.3,29.13,NNW,337,0.0,0.0,100,0.00,,,0.14,Rainwise IP-100,2013-06-29 11:01:00,
2013-06-29 07:06:00,66.2,66.3,29.13,NNW,337,0.0,1.4,100,0.00,,,0.14,Rainwise IP-100,2013-06-29 11:06:00,
2013-06-29 07:11:00,66.3,66.3,29.13,NNW,337,0.0,0.0,100,0.00,,,0.14,Rainwise IP-100,2013-06-29 11:11:00,
2013-06-29 07:17:00,66.5,66.7,29.14,NNW,337,0.0,0.0,100,0.00,,,0.14,Rainwise IP-100,2013-06-29 11:17:00,
2013-06-29 07:22:00,66.7,66.7,29.13,WSW,247,0.0,0.0,100,0.00,,,0.14,Rainwise IP-100,2013-06-29 11:22:00,
2013-06-29 07:27:00,66.9,67.0,29.14,WSW,247,0.0,0.0,100,0.00,,,0.14,Rainwise IP-100,2013-06-29 11:27:00,
2013-06-29 07:32:00,67.1,67.0,29.14,WSW,247,0.0,0.0,100,0.00,,,0.14,Rainwise IP-100,2013-06-29 11:32:00,
2013-06-29 07:37:00,67.2,67.0,29.14,WSW,247,0.0,0.0,100,0.00,,,0.14,Rainwise IP-100,2013-06-29 11:37:00,
2013-06-29 07:42:00,67.4,67.5,29.14,WSW,247,0.0,0.0,100,0.00,,,0.14,Rainwise IP-100,2013-06-29 11:42:00,
2013-06-29 07:47:00,67.4,67.5,29.14,WSW,247,0.0,0.0,100,0.00,,,0.14,Rainwise IP-100,2013-06-29 11:47:00,
2013-06-29 07:52:00,67.1,67.0,29.14,WSW,247,0.0,1.2,100,0.00,,,0.14,Rainwise IP-100,2013-06-29 11:52:00,
2013-06-29 07:57:00,67.0,67.0,29.14,WSW,247,0.0,0.0,100,0.00,,,0.14,Rainwise IP-100,2013-06-29 11:57:00,
2013-06-29 08:02:00,67.1,67.0,29.14,WSW,247,0.0,1.4,100,0.00,,,0.14,Rainwise IP-100,2013-06-29 12:02:00,
2013-06-29 08:07:00,67.3,67.5,29.14,WSW,247,0.0,0.0,100,0.00,,,0.14,Rainwise IP-100,2013-06-29 12:07:00,
2013-06-29 08:12:00,67.6,67.5,29.15,WSW,247,0.0,0.0,100,0.00,,,0.14,Rainwise IP-100,2013-06-29 12:12:00,
2013-06-29 08:17:00,67.8,68.0,29.15,WSW,247,0.0,0.0,100,0.00,,,0.14,Rainwise IP-100,2013-06-29 12:17:00,
2013-06-29 08:22:00,68.1,68.0,29.15,WSW,247,0.0,0.0,100,0.00,,,0.14,Rainwise IP-100,2013-06-29 12:22:00,
2013-06-29 08:27:00,68.0,68.0,29.14,WSW,247,0.0,0.0,100,0.00,,,0.14,Rainwise IP-100,2013-06-29 12:27:00,
2013-06-29 08:33:00,68.0,68.0,29.14,WSW,247,0.0,0.0,100,0.00,,,0.14,Rainwise IP-100,2013-06-29 12:33:00,
2013-06-29 08:38:00,68.5,68.5,29.15,WSW,247,0.0,1.9,100,0.00,,,0.14,Rainwise IP-100,2013-06-29 12:38:00,
2013-06-29 08:43:00,68.7,68.5,29.15,WSW,247,1.2,2.1,100,0.00,,,0.14,Rainwise IP-100,2013-06-29 12:43:00,
2013-06-29 08:48:00,68.6,68.5,29.15,WSW,247,1.4,1.9,100,0.00,,,0.14,Rainwise IP-100,2013-06-29 12:48:00,
2013-06-29 08:51:00,68.8,69.0,29.15,WSW,247,0.0,1.9,100,0.00,,,0.14,Rainwise IP-100,2013-06-29 12:51:00,
2013-06-29 08:52:00,68.9,69.0,29.15,WSW,247,0.0,1.9,100,0.00,,,0.14,Rainwise IP-100,2013-06-29 12:52:00,
2013-06-29 08:57:00,69.5,69.7,29.14,WSW,247,0.0,0.0,100,0.00,,,0.14,Rainwise IP-100,2013-06-29 12:57:00,
2013-06-29 09:02:00,69.3,69.3,29.15,WSW,247,0.0,1.2,100,0.00,,,0.14,Rainwise IP-100,2013-06-29 13:02:00,
2013-06-29 09:07:00,69.0,69.0,29.15,ENE,67,1.4,2.3,100,0.00,,,0.14,Rainwise IP-100,2013-06-29 13:07:00,
2013-06-29 09:13:00,69.1,69.0,29.14,ENE,67,0.0,2.1,100,0.00,,,0.14,Rainwise IP-100,2013-06-29 13:13:00,
2013-06-29 09:18:00,69.8,69.7,29.14,ENE,67,0.0,1.4,100,0.00,,,0.14,Rainwise IP-100,2013-06-29 13:18:00,
2013-06-29 09:23:00,70.5,70.5,29.13,ENE,67,0.0,0.0,100,0.00,,,0.14,Rainwise IP-100,2013-06-29 13:23:00,
2013-06-29 09:28:00,70.4,70.5,29.13,WSW,247,1.4,2.6,100,0.00,,,0.14,Rainwise IP-100,2013-06-29 13:28:00,
2013-06-29 09:33:00,70.4,70.5,29.13,WSW,247,0.0,1.6,100,0.00,,,0.14,Rainwise IP-100,2013-06-29 13:33:00,
2013-06-29 09:38:00,70.9,71.0,29.14,WSW,247,0.0,1.9,100,0.00,,,0.14,Rainwise IP-100,2013-06-29 13:38:00,
2013-06-29 09:43:00,71.4,71.3,29.14,SW,225,1.6,1.6,100,0.00,,,0.14,Rainwise IP-100,2013-06-29 13:43:00,
2013-06-29 09:48:00,71.7,71.7,29.14,SSE,157,1.2,3.5,100,0.00,,,0.14,Rainwise IP-100,2013-06-29 13:48:00,
2013-06-29 09:53:00,72.1,72.0,29.14,ESE,112,1.2,3.3,100,0.00,,,0.14,Rainwise IP-100,2013-06-29 13:53:00,
2013-06-29 09:58:00,73.0,73.0,29.14,SSE,157,1.6,2.3,100,0.00,,,0.14,Rainwise IP-100,2013-06-29 13:58:00,
2013-06-29 10:03:00,73.8,73.7,29.13,SSE,157,2.6,3.0,100,0.00,,,0.14,Rainwise IP-100,2013-06-29 14:03:00,
2013-06-29 10:08:00,73.4,73.3,29.15,South,180,4.7,4.9,100,0.00,,,0.14,Rainwise IP-100,2013-06-29 14:08:00,
2013-06-29 10:13:00,72.6,72.7,29.14,SSW,202,2.6,5.4,100,0.00,,,0.14,Rainwise IP-100,2013-06-29 14:13:00,
2013-06-29 10:18:00,72.6,72.7,29.14,SSE,157,0.0,3.5,100,0.00,,,0.14,Rainwise IP-100,2013-06-29 14:18:00,
2013-06-29 10:23:00,72.9,73.0,29.14,SW,225,2.3,5.4,100,0.00,,,0.14,Rainwise IP-100,2013-06-29 14:23:00,
2013-06-29 10:29:00,72.9,72.7,29.14,SE,135,4.0,6.1,99,0.00,,,0.14,Rainwise IP-100,2013-06-29 14:29:00,
2013-06-29 10:34:00,72.9,72.3,29.14,SSW,202,3.0,6.8,98,0.00,,,0.14,Rainwise IP-100,2013-06-29 14:34:00,
2013-06-29 10:39:00,73.6,73.0,29.14,SSW,202,4.0,6.5,98,0.00,,,0.14,Rainwise IP-100,2013-06-29 14:39:00,
2013-06-29 10:44:00,73.8,73.0,29.14,SE,135,2.6,6.5,98,0.00,,,0.14,Rainwise IP-100,2013-06-29 14:44:00,
2013-06-29 10:49:00,74.1,72.7,29.14,WSW,247,3.7,6.5,95,0.00,,,0.14,Rainwise IP-100,2013-06-29 14:49:00,
2013-06-29 10:54:00,74.9,73.7,29.14,NNE,22,0.0,6.5,96,0.00,,,0.14,Rainwise IP-100,2013-06-29 14:54:00,
2013-06-29 10:59:00,75.2,74.0,29.14,SSE,157,6.8,9.1,97,0.00,,,0.14,Rainwise IP-100,2013-06-29 14:59:00,
2013-06-29 11:04:00,75.4,74.0,29.14,SSE,157,2.3,7.0,95,0.00,,,0.14,Rainwise IP-100,2013-06-29 15:04:00,
2013-06-29 11:09:00,76.0,73.3,29.14,SSE,157,1.4,7.7,92,0.00,,,0.14,Rainwise IP-100,2013-06-29 15:09:00,
2013-06-29 11:14:00,76.2,73.3,29.14,SSE,157,5.4,8.9,91,0.00,,,0.14,Rainwise IP-100,2013-06-29 15:14:00,
2013-06-29 11:19:00,76.3,72.3,29.13,SSW,202,6.1,8.2,88,0.00,,,0.14,Rainwise IP-100,2013-06-29 15:19:00,
2013-06-29 11:24:00,76.3,71.3,29.14,South,180,4.2,7.9,85,0.00,,,0.14,Rainwise IP-100,2013-06-29 15:24:00,
2013-06-29 11:29:00,76.4,71.3,29.13,SSE,157,7.2,9.3,84,0.00,,,0.14,Rainwise IP-100,2013-06-29 15:29:00,
2013-06-29 11:34:00,77.1,72.3,29.14,SW,225,3.0,7.5,85,0.00,,,0.14,Rainwise IP-100,2013-06-29 15:34:00,
2013-06-29 11:39:00,78.0,73.7,29.13,SSE,157,4.0,6.8,87,0.00,,,0.14,Rainwise IP-100,2013-06-29 15:39:00,
2013-06-29 11:45:00,78.2,73.3,29.13,SE,135,2.6,8.2,85,0.00,,,0.14,Rainwise IP-100,2013-06-29 15:45:00,
2013-06-29 11:50:00,78.0,72.3,29.13,SSW,202,4.4,5.1,82,0.00,,,0.14,Rainwise IP-100,2013-06-29 15:50:00,
2013-06-29 11:55:00,78.5,72.3,29.13,WSW,247,2.6,8.6,81,0.00,,,0.14,Rainwise IP-100,2013-06-29 15:55:00,
2013-06-29 12:00:00,78.8,72.3,29.13,SE,135,1.6,8.9,81,0.00,,,0.14,Rainwise IP-100,2013-06-29 16:00:00,
2013-06-29 12:05:00,78.5,71.3,29.12,SW,225,1.6,9.6,78,0.00,,,0.14,Rainwise IP-100,2013-06-29 16:05:00,
2013-06-29 12:10:00,78.4,70.0,29.12,SSE,157,3.3,10.3,76,0.00,,,0.14,Rainwise IP-100,2013-06-29 16:10:00,
2013-06-29 12:15:00,78.5,70.5,29.12,SSW,202,6.3,10.7,76,0.00,,,0.14,Rainwise IP-100,2013-06-29 16:15:00,
2013-06-29 12:20:00,78.7,70.0,29.13,SW,225,7.0,11.2,75,0.00,,,0.14,Rainwise IP-100,2013-06-29 16:20:00,
2013-06-29 12:25:00,79.2,71.0,29.12,SSE,157,3.5,7.9,75,0.00,,,0.14,Rainwise IP-100,2013-06-29 16:25:00,
2013-06-29 12:30:00,79.7,70.5,29.12,SSW,202,3.5,7.2,74,0.00,,,0.14,Rainwise IP-100,2013-06-29 16:30:00,
2013-06-29 12:35:00,80.2,71.0,29.12,SSW,202,7.5,13.1,73,0.00,,,0.14,Rainwise IP-100,2013-06-29 16:35:00,
2013-06-29 12:40:00,80.3,69.7,29.11,South,180,8.6,10.7,70,0.00,,,0.14,Rainwise IP-100,2013-06-29 16:40:00,
2013-06-29 12:45:00,80.0,68.5,29.12,SSW,202,4.0,12.8,68,0.00,,,0.14,Rainwise IP-100,2013-06-29 16:45:00,
2013-06-29 12:50:00,79.2,67.5,29.11,SSW,202,9.6,15.6,67,0.00,,,0.14,Rainwise IP-100,2013-06-29 16:50:00,
2013-06-29 12:55:00,78.7,66.7,29.12,SSW,202,7.9,16.3,67,0.00,,,0.14,Rainwise IP-100,2013-06-29 16:55:00,
2013-06-29 13:01:00,78.9,67.5,29.11,WSW,247,4.4,12.6,68,0.00,,,0.14,Rainwise IP-100,2013-06-29 17:01:00,
2013-06-29 13:06:00,79.7,68.0,29.12,SE,135,6.8,11.4,68,0.00,,,0.14,Rainwise IP-100,2013-06-29 17:06:00,
2013-06-29 13:11:00,80.3,68.0,29.11,SSE,157,1.6,10.0,66,0.00,,,0.14,Rainwise IP-100,2013-06-29 17:11:00,
2013-06-29 13:16:00,80.9,69.0,29.11,SSW,202,12.4,12.4,66,0.00,,,0.14,Rainwise IP-100,2013-06-29 17:16:00,
2013-06-29 13:21:00,80.8,67.5,29.10,SSW,202,11.9,16.8,64,0.00,,,0.14,Rainwise IP-100,2013-06-29 17:21:00,
2013-06-29 13:26:00,80.7,67.0,29.11,WSW,247,3.7,13.5,63,0.00,,,0.14,Rainwise IP-100,2013-06-29 17:26:00,
2013-06-29 13:31:00,80.6,66.7,29.11,SSW,202,8.9,11.2,63,0.00,,,0.14,Rainwise IP-100,2013-06-29 17:31:00,
2013-06-29 13:36:00,80.2,66.7,29.11,SSE,157,5.8,11.4,63,0.00,,,0.14,Rainwise IP-100,2013-06-29 17:36:00,
2013-06-29 13:41:00,79.6,66.3,29.11,SSW,202,5.4,11.7,64,0.00,,,0.14,Rainwise IP-100,2013-06-29 17:41:00,
2013-06-29 13:46:00,78.9,66.0,29.11,SSW,202,10.0,13.5,64,0.00,,,0.14,Rainwise IP-100,2013-06-29 17:46:00,
2013-06-29 13:51:00,78.3,66.0,29.11,SSW,202,11.2,11.2,65,0.00,,,0.14,Rainwise IP-100,2013-06-29 17:51:00,
2013-06-29 13:56:00,78.0,66.0,29.11,SSE,157,5.4,11.2,66,0.00,,,0.14,Rainwise IP-100,2013-06-29 17:56:00,
2013-06-29 14:01:00,77.9,66.3,29.11,SSW,202,9.8,12.1,67,0.00,,,0.14,Rainwise IP-100,2013-06-29 18:01:00,
2013-06-29 14:06:00,78.0,66.7,29.11,South,180,10.0,12.8,68,0.00,,,0.14,Rainwise IP-100,2013-06-29 18:06:00,
2013-06-29 14:11:00,77.9,66.7,29.11,SSW,202,9.1,20.3,68,0.00,,,0.14,Rainwise IP-100,2013-06-29 18:11:00,
2013-06-29 14:17:00,77.3,66.0,29.12,SSW,202,10.5,15.4,67,0.00,,,0.14,Rainwise IP-100,2013-06-29 18:17:00,
2013-06-29 14:22:00,76.7,65.0,29.13,SW,225,8.9,13.3,67,0.00,,,0.14,Rainwise IP-100,2013-06-29 18:22:00,
2013-06-29 14:27:00,76.3,66.0,29.13,SW,225,7.2,10.5,70,0.00,,,0.14,Rainwise IP-100,2013-06-29 18:27:00,
2013-06-29 14:32:00,76.1,66.3,29.13,SSE,157,7.2,13.1,72,0.00,,,0.14,Rainwise IP-100,2013-06-29 18:32:00,
2013-06-29 14:37:00,76.2,66.7,29.13,SSW,202,4.0,12.4,72,0.00,,,0.14,Rainwise IP-100,2013-06-29 18:37:00,
2013-06-29 14:42:00,76.6,65.5,29.12,SSW,202,3.7,12.8,69,0.00,,,0.14,Rainwise IP-100,2013-06-29 18:42:00,
2013-06-29 14:47:00,77.0,65.0,29.12,South,180,6.1,8.4,66,0.00,,,0.14,Rainwise IP-100,2013-06-29 18:47:00,
2013-06-29 14:52:00,77.7,64.5,29.12,SSW,202,2.3,8.2,64,0.00,,,0.14,Rainwise IP-100,2013-06-29 18:52:00,
2013-06-29 14:57:00,78.6,65.0,29.12,SSW,202,5.1,6.5,63,0.00,,,0.14,Rainwise IP-100,2013-06-29 18:57:00,
2013-06-29 15:02:00,78.9,65.0,29.12,SW,225,4.4,6.5,62,0.00,,,0.14,Rainwise IP-100,2013-06-29 19:02:00,
2013-06-29 15:07:00,78.8,63.5,29.12,SSW,202,3.5,6.1,60,0.00,,,0.14,Rainwise IP-100,2013-06-29 19:07:00,
2013-06-29 15:12:00,79.1,64.5,29.12,SE,135,1.6,4.2,61,0.00,,,0.14,Rainwise IP-100,2013-06-29 19:12:00,
2013-06-29 15:17:00,79.7,65.0,29.12,SSW,202,2.6,5.1,61,0.00,,,0.14,Rainwise IP-100,2013-06-29 19:17:00,
2013-06-29 15:22:00,79.9,65.5,29.12,SW,225,3.3,5.6,61,0.00,,,0.14,Rainwise IP-100,2013-06-29 19:22:00,
2013-06-29 15:27:00,79.4,65.5,29.12,South,180,2.8,6.1,62,0.00,,,0.14,Rainwise IP-100,2013-06-29 19:27:00,
2013-06-29 15:33:00,78.8,65.5,29.12,SSW,202,4.0,4.9,64,0.00,,,0.14,Rainwise IP-100,2013-06-29 19:33:00,
2013-06-29 15:38:00,78.9,66.3,29.12,SSW,202,2.1,4.7,65,0.00,,,0.14,Rainwise IP-100,2013-06-29 19:38:00,
2013-06-29 15:43:00,79.7,66.7,29.12,ENE,67,3.3,5.8,65,0.00,,,0.14,Rainwise IP-100,2013-06-29 19:43:00,
2013-06-29 15:48:00,80.0,66.7,29.12,SSE,157,3.3,9.3,64,0.00,,,0.14,Rainwise IP-100,2013-06-29 19:48:00,
2013-06-29 15:53:00,80.2,67.0,29.12,SSW,202,2.6,6.5,64,0.00,,,0.14,Rainwise IP-100,2013-06-29 19:53:00,
2013-06-29 15:58:00,81.1,68.5,29.12,WSW,247,4.2,5.6,65,0.00,,,0.14,Rainwise IP-100,2013-06-29 19:58:00,
2013-06-29 16:03:00,81.7,68.5,29.11,SW,225,4.4,7.7,64,0.00,,,0.14,Rainwise IP-100,2013-06-29 20:03:00,
2013-06-29 16:08:00,82.0,68.5,29.12,WSW,247,4.0,11.0,64,0.00,,,0.14,Rainwise IP-100,2013-06-29 20:08:00,
2013-06-29 16:13:00,81.4,67.5,29.12,SSW,202,4.0,12.1,63,0.00,,,0.14,Rainwise IP-100,2013-06-29 20:13:00,
2013-06-29 16:18:00,80.5,67.0,29.11,SSE,157,5.1,11.2,64,0.00,,,0.14,Rainwise IP-100,2013-06-29 20:18:00,
2013-06-29 16:23:00,79.9,67.0,29.12,WSW,247,4.2,11.7,65,0.00,,,0.14,Rainwise IP-100,2013-06-29 20:23:00,
2013-06-29 16:28:00,79.5,67.5,29.12,SSW,202,4.4,5.8,67,0.00,,,0.14,Rainwise IP-100,2013-06-29 20:28:00,
2013-06-29 16:33:00,79.2,68.5,29.12,WSW,247,1.6,4.7,69,0.00,,,0.14,Rainwise IP-100,2013-06-29 20:33:00,
2013-06-29 16:38:00,79.4,69.0,29.12,SW,225,2.1,4.0,70,0.00,,,0.14,Rainwise IP-100,2013-06-29 20:38:00,
2013-06-29 16:43:00,79.7,69.0,29.13,SSW,202,5.4,5.8,70,0.00,,,0.14,Rainwise IP-100,2013-06-29 20:43:00,
2013-06-29 16:49:00,79.7,68.5,29.12,SSW,202,3.7,6.3,69,0.00,,,0.14,Rainwise IP-100,2013-06-29 20:49:00,
2013-06-29 16:54:00,79.5,69.0,29.13,SSW,202,0.0,5.4,70,0.00,,,0.14,Rainwise IP-100,2013-06-29 20:54:00,
2013-06-29 16:59:00,79.4,69.0,29.13,SSW,202,1.4,5.6,70,0.00,,,0.14,Rainwise IP-100,2013-06-29 20:59:00,
2013-06-29 17:04:00,79.3,69.0,29.13,SSW,202,2.3,6.1,70,0.00,,,0.14,Rainwise IP-100,2013-06-29 21:04:00,
2013-06-29 17:09:00,79.0,69.0,29.13,SSW,202,1.9,3.5,71,0.00,,,0.14,Rainwise IP-100,2013-06-29 21:09:00,
2013-06-29 17:14:00,79.0,69.0,29.13,SSW,202,3.0,3.5,71,0.00,,,0.14,Rainwise IP-100,2013-06-29 21:14:00,
2013-06-29 17:19:00,79.4,69.3,29.13,SSW,202,1.9,3.3,71,0.00,,,0.14,Rainwise IP-100,2013-06-29 21:19:00,
2013-06-29 17:24:00,79.9,69.7,29.13,South,180,0.0,2.8,71,0.00,,,0.14,Rainwise IP-100,2013-06-29 21:24:00,
2013-06-29 17:29:00,80.0,70.0,29.13,WNW,292,4.4,4.4,72,0.00,,,0.14,Rainwise IP-100,2013-06-29 21:29:00,
2013-06-29 17:34:00,79.7,69.7,29.14,WNW,292,1.4,4.9,72,0.00,,,0.14,Rainwise IP-100,2013-06-29 21:34:00,
2013-06-29 17:39:00,79.3,70.0,29.14,NNW,337,0.0,4.9,73,0.00,,,0.14,Rainwise IP-100,2013-06-29 21:39:00,
2013-06-29 17:44:00,79.3,70.5,29.14,NNW,337,0.0,0.0,74,0.00,,,0.14,Rainwise IP-100,2013-06-29 21:44:00,
2013-06-29 17:49:00,79.2,70.5,29.15,SSE,157,1.2,2.3,74,0.00,,,0.14,Rainwise IP-100,2013-06-29 21:49:00,
2013-06-29 17:54:00,78.8,69.7,29.15,WSW,247,0.0,4.0,74,0.00,,,0.14,Rainwise IP-100,2013-06-29 21:54:00,
2013-06-29 18:00:00,78.7,69.7,29.15,SSE,157,0.0,2.3,74,0.00,,,0.14,Rainwise IP-100,2013-06-29 22:00:00,
2013-06-29 18:05:00,78.8,70.0,29.15,WSW,247,3.7,3.7,75,0.00,,,0.14,Rainwise IP-100,2013-06-29 22:05:00,
2013-06-29 18:10:00,78.9,69.7,29.15,SW,225,2.3,7.2,73,0.00,,,0.14,Rainwise IP-100,2013-06-29 22:10:00,
2013-06-29 18:15:00,79.1,68.0,29.15,NNW,337,0.0,5.6,69,0.00,,,0.14,Rainwise IP-100,2013-06-29 22:15:00,
2013-06-29 18:20:00,79.3,68.5,29.15,SSE,157,0.0,1.9,69,0.00,,,0.14,Rainwise IP-100,2013-06-29 22:20:00,
2013-06-29 18:25:00,79.0,68.5,29.15,SW,225,1.2,4.9,70,0.00,,,0.14,Rainwise IP-100,2013-06-29 22:25:00,
2013-06-29 18:30:00,78.9,67.0,29.15,South,180,1.2,4.2,67,0.00,,,0.14,Rainwise IP-100,2013-06-29 22:30:00,
2013-06-29 18:35:00,78.9,67.0,29.16,SSW,202,2.1,4.7,67,0.00,,,0.14,Rainwise IP-100,2013-06-29 22:35:00,
2013-06-29 18:40:00,79.1,66.7,29.15,SSW,202,1.9,3.3,66,0.00,,,0.14,Rainwise IP-100,2013-06-29 22:40:00,
2013-06-29 18:45:00,79.3,67.0,29.16,SSE,157,3.0,5.8,66,0.00,,,0.14,Rainwise IP-100,2013-06-29 22:45:00,
2013-06-29 18:50:00,79.2,66.3,29.17,SSW,202,3.0,7.7,64,0.00,,,0.14,Rainwise IP-100,2013-06-29 22:50:00,
2013-06-29 18:55:00,78.9,65.0,29.16,WSW,247,4.9,7.2,62,0.00,,,0.14,Rainwise IP-100,2013-06-29 22:55:00,
2013-06-29 19:00:00,78.9,64.5,29.16,SSE,157,6.5,11.4,61,0.00,,,0.14,Rainwise IP-100,2013-06-29 23:00:00,
2013-06-29 19:05:00,78.7,64.0,29.17,SSE,157,6.3,11.4,61,0.00,,,0.14,Rainwise IP-100,2013-06-29 23:05:00,
2013-06-29 19:10:00,78.5,64.0,29.17,SSW,202,4.4,10.5,61,0.00,,,0.14,Rainwise IP-100,2013-06-29 23:10:00,
2013-06-29 19:16:00,78.2,64.0,29.17,SSW,202,4.0,6.8,61,0.00,,,0.14,Rainwise IP-100,2013-06-29 23:16:00,
2013-06-29 19:21:00,77.8,64.0,29.18,SSE,157,2.8,10.3,62,0.00,,,0.14,Rainwise IP-100,2013-06-29 23:21:00,
2013-06-29 19:26:00,77.9,64.0,29.18,SSE,157,11.4,11.4,62,0.00,,,0.14,Rainwise IP-100,2013-06-29 23:26:00,
2013-06-29 19:31:00,78.0,63.5,29.18,WSW,247,8.4,15.4,61,0.00,,,0.14,Rainwise IP-100,2013-06-29 23:31:00,
2013-06-29 19:36:00,77.9,63.0,29.18,SW,225,14.2,18.2,60,0.00,,,0.14,Rainwise IP-100,2013-06-29 23:36:00,
2013-06-29 19:41:00,77.3,62.5,29.19,WSW,247,14.9,21.9,60,0.00,,,0.14,Rainwise IP-100,2013-06-29 23:41:00,
2013-06-29 19:46:00,76.3,62.0,29.19,SSW,202,9.6,15.6,61,0.00,,,0.14,Rainwise IP-100,2013-06-29 23:46:00,
2013-06-29 19:51:00,75.8,62.0,29.19,SW,225,4.9,12.1,62,0.00,,,0.14,Rainwise IP-100,2013-06-29 23:51:00,
2013-06-29 19:56:00,75.7,62.0,29.19,SSE,157,6.3,10.0,63,0.00,,,0.14,Rainwise IP-100,2013-06-29 23:56:00,
2013-06-29 20:01:00,75.6,62.0,29.19,SSW,202,1.6,7.7,63,0.00,,,0.14,Rainwise IP-100,2013-06-30 00:01:00,
2013-06-29 20:06:00,75.4,62.5,29.20,SSW,202,3.5,6.3,64,0.00,,,0.14,Rainwise IP-100,2013-06-30 00:06:00,
2013-06-29 20:11:00,75.1,62.5,29.20,SSW,202,2.6,8.9,65,0.00,,,0.14,Rainwise IP-100,2013-06-30 00:11:00,
2013-06-29 20:16:00,74.8,62.5,29.20,SSW,202,1.6,5.4,66,0.00,,,0.14,Rainwise IP-100,2013-06-30 00:16:00,
2013-06-29 20:21:00,74.4,63.0,29.20,SSW,202,3.0,4.7,67,0.00,,,0.14,Rainwise IP-100,2013-06-30 00:21:00,
2013-06-29 20:26:00,74.3,63.0,29.21,SSW,202,4.0,4.7,68,0.00,,,0.14,Rainwise IP-100,2013-06-30 00:26:00,
2013-06-29 20:32:00,73.9,63.5,29.21,SSW,202,2.1,5.6,69,0.00,,,0.14,Rainwise IP-100,2013-06-30 00:32:00,
2013-06-29 20:37:00,73.5,63.5,29.21,SSE,157,4.4,4.7,70,0.00,,,0.14,Rainwise IP-100,2013-06-30 00:37:00,
2013-06-29 20:42:00,73.3,63.5,29.21,SSE,157,0.0,4.2,71,0.00,,,0.14,Rainwise IP-100,2013-06-30 00:42:00,
2013-06-29 20:47:00,73.1,63.5,29.21,SSE,157,0.0,0.0,72,0.00,,,0.14,Rainwise IP-100,2013-06-30 00:47:00,
2013-06-29 20:52:00,72.9,63.5,29.22,SSW,202,1.2,2.1,72,0.00,,,0.14,Rainwise IP-100,2013-06-30 00:52:00,
2013-06-29 20:57:00,72.4,63.5,29.22,SW,225,0.0,2.3,74,0.00,,,0.14,Rainwise IP-100,2013-06-30 00:57:00,
2013-06-29 21:02:00,72.0,63.5,29.23,SSW,202,1.6,2.6,75,0.00,,,0.14,Rainwise IP-100,2013-06-30 01:02:00,
2013-06-29 21:07:00,71.8,63.5,29.23,SSW,202,2.6,3.0,76,0.00,,,0.14,Rainwise IP-100,2013-06-30 01:07:00,
2013-06-29 21:12:00,71.6,64.0,29.23,SSW,202,3.5,4.2,77,0.00,,,0.14,Rainwise IP-100,2013-06-30 01:12:00,
2013-06-29 21:17:00,71.6,64.0,29.23,SSW,202,3.7,4.9,77,0.00,,,0.14,Rainwise IP-100,2013-06-30 01:17:00,
2013-06-29 21:22:00,71.6,63.5,29.24,SSW,202,3.0,4.9,76,0.00,,,0.14,Rainwise IP-100,2013-06-30 01:22:00,
2013-06-29 21:27:00,71.5,64.0,29.24,SSW,202,4.7,5.4,77,0.00,,,0.14,Rainwise IP-100,2013-06-30 01:27:00,
2013-06-29 21:32:00,71.5,64.0,29.25,SSW,202,2.8,5.6,77,0.00,,,0.14,Rainwise IP-100,2013-06-30 01:32:00,
2013-06-29 21:37:00,71.7,64.0,29.25,SSE,157,1.9,6.1,77,0.00,,,0.14,Rainwise IP-100,2013-06-30 01:37:00,
2013-06-29 21:42:00,71.5,64.5,29.25,WSW,247,1.6,2.8,78,0.00,,,0.14,Rainwise IP-100,2013-06-30 01:42:00,
2013-06-29 21:48:00,70.9,64.5,29.24,WSW,247,1.9,3.3,80,0.00,,,0.14,Rainwise IP-100,2013-06-30 01:48:00,
2013-06-29 21:53:00,70.3,65.0,29.25,WSW,247,1.6,2.3,82,0.00,,,0.14,Rainwise IP-100,2013-06-30 01:53:00,
2013-06-29 21:58:00,69.7,65.0,29.25,WSW,247,1.2,2.1,85,0.00,,,0.14,Rainwise IP-100,2013-06-30 01:58:00,
2013-06-29 22:03:00,69.3,65.0,29.25,WSW,247,0.0,1.4,86,0.00,,,0.14,Rainwise IP-100,2013-06-30 02:03:00,
2013-06-29 22:08:00,68.9,65.0,29.25,WSW,247,0.0,0.0,88,0.00,,,0.14,Rainwise IP-100,2013-06-30 02:08:00,
2013-06-29 22:13:00,68.6,65.0,29.25,SW,225,1.9,3.3,89,0.00,,,0.14,Rainwise IP-100,2013-06-30 02:13:00,
2013-06-29 22:18:00,68.7,65.0,29.25,SSW,202,3.3,4.9,89,0.00,,,0.14,Rainwise IP-100,2013-06-30 02:18:00,
2013-06-29 22:23:00,69.1,65.5,29.25,SW,225,1.2,4.4,89,0.00,,,0.14,Rainwise IP-100,2013-06-30 02:23:00,
2013-06-29 22:28:00,69.2,65.5,29.25,SSW,202,2.6,4.0,88,0.00,,,0.14,Rainwise IP-100,2013-06-30 02:28:00,
2013-06-29 22:33:00,68.9,65.5,29.26,SSW,202,2.3,4.2,89,0.00,,,0.14,Rainwise IP-100,2013-06-30 02:33:00,
2013-06-29 22:38:00,68.7,65.5,29.25,SSE,157,0.0,3.0,90,0.00,,,0.14,Rainwise IP-100,2013-06-30 02:38:00,
2013-06-29 22:44:00,68.6,65.5,29.26,SSW,202,0.0,2.6,90,0.00,,,0.14,Rainwise IP-100,2013-06-30 02:44:00,
2013-06-29 22:49:00,68.6,66.0,29.26,SSW,202,0.0,1.4,91,0.00,,,0.14,Rainwise IP-100,2013-06-30 02:49:00,
2013-06-29 22:54:00,68.5,66.0,29.26,SSW,202,3.5,4.4,91,0.00,,,0.14,Rainwise IP-100,2013-06-30 02:54:00,
2013-06-29 22:59:00,68.6,66.0,29.26,SSW,202,1.2,5.1,91,0.00,,,0.14,Rainwise IP-100,2013-06-30 02:59:00,
2013-06-29 23:04:00,68.7,65.5,29.27,SW,225,1.6,3.0,90,0.00,,,0.14,Rainwise IP-100,2013-06-30 03:04:00,
2013-06-29 23:09:00,68.8,66.0,29.26,SW,225,0.0,2.8,90,0.00,,,0.14,Rainwise IP-100,2013-06-30 03:09:00,
2013-06-29 23:14:00,68.8,66.0,29.27,SSW,202,0.0,2.3,90,0.00,,,0.14,Rainwise IP-100,2013-06-30 03:14:00,
2013-06-29 23:19:00,68.8,66.0,29.27,SSW,202,0.0,0.0,90,0.00,,,0.14,Rainwise IP-100,2013-06-30 03:19:00,
2013-06-29 23:24:00,68.6,66.0,29.27,SSW,202,0.0,0.0,91,0.00,,,0.14,Rainwise IP-100,2013-06-30 03:24:00,
2013-06-29 23:29:00,68.4,66.0,29.27,SSW,202,0.0,0.0,91,0.00,,,0.14,Rainwise IP-100,2013-06-30 03:29:00,
2013-06-29 23:34:00,68.1,65.5,29.27,SSW,202,0.0,0.0,92,0.00,,,0.14,Rainwise IP-100,2013-06-30 03:34:00,
2013-06-29 23:39:00,68.0,65.5,29.27,SSW,202,0.0,0.0,92,0.00,,,0.14,Rainwise IP-100,2013-06-30 03:39:00,
2013-06-29 23:44:00,67.9,66.0,29.27,SSW,202,0.0,0.0,93,0.00,,,0.14,Rainwise IP-100,2013-06-30 03:44:00,
2013-06-29 23:49:00,67.7,65.5,29.27,SSW,202,0.0,0.0,93,0.00,,,0.14,Rainwise IP-100,2013-06-30 03:49:00,
2013-06-29 23:54:00,67.4,65.5,29.27,SSW,202,0.0,0.0,93,0.00,,,0.14,Rainwise IP-100,2013-06-30 03:54:00,